Miscellaneous Local Product
Issued by NWS North Platte, NE

Home | Current Version | Previous Version | Graphics & Text | Print | Product List | Glossary On
Versions: 1 2 3 4 5 6 7 8 9 10 11 12 13 14 15 16 17 18 19 20 21 22 23 24 25 26 27 28 29 30 31 32 33 34 35 36 37 38 39 40 41 42 43 44 45 46 47 48 49 50
000
AXUS43 KLBF 202210
MISLBF


WESTERN AND NORTH CENTRAL NEBRASKA HOURLY WEATHER ROUNDUP
NATIONAL WEATHER SERVICE NORTH PLATTE NE
500 PM CDT THU JUL 20 2017

NOTE: "FAIR" INDICATES FEW OR NO CLOUDS BELOW 12,000 FEET WITH NO
SIGNIFICANT WEATHER AND/OR OBSTRUCTIONS TO VISIBILITY.

NOTE: STATIONS NOT REPORTING VARIABLES SUCH AS SKY/WEATHER OR
PRESSURE ARE PROVIDED BY RAWS AND APRS NETWORKS AND ARE NOT UNDER
NATIONAL WEATHER SERVICE QUALITY CONTROL.

...OBSERVATIONS IN AND NEAR THE EASTERN PANHANDLE OF NEBRASKA...

CITY           SKY/WX    TMP DP  RH WIND       PRES   REMARKS
PINE RIDGE     SUNNY     93  61  34 SE12      30.00F HX  93
GORDON         FAIR      89  62  40 SE12      30.03F
CHADRON        SUNNY     93  58  30 S15       29.98F HX  92
ALLIANCE       SUNNY     91  57  31 VRB5      30.04F
SIDNEY         SUNNY     93  56  28 SE9G17    30.08F HX  91
CRESCENT LAKE    N/A     91  60  35 E7G16       N/A  HX  90
$$

...OBSERVATIONS IN NORTHERN NEBRASKA AND FAR SOUTHERN SOUTH DAKOTA...

CITY           SKY/WX    TMP DP  RH WIND       PRES   REMARKS
WINNER         FAIR      99  62  29 SE16      29.95F HX 100
VALENTINE      SUNNY     97  60  29 S10       29.98F HX  97
THEDFORD       SUNNY     92  64  39 SE14G21   30.03F HX  93
AINSWORTH      SUNNY     91  63  38 SE10      30.01F HX  92
O`NEILL        CLOUDY    86  74  66 E8        29.99F HX  94
ORD            MOSUNNY   92  68  45 E12       29.96F HX  96
BROKEN BOW     SUNNY     92  69  47 E12       29.99F HX  97
VALENTINE NWR    N/A     90  62  39 SE7         N/A  HX  90
HALSEY           N/A     90  62  39 SE9G17      N/A  HX  90
BUTTE            N/A     87  73  63 SE9         N/A  HX  94
CHAMBERS         N/A     90  72  55 CALM        N/A  HX  97
EWING            N/A     86  79  78 E5          N/A  HX  99
$$

...OBSERVATIONS IN SOUTHWEST NEBRASKA AND FAR NORTHEAST COLORADO...

CITY           SKY/WX    TMP DP  RH WIND       PRES   REMARKS
HOLYOKE        FAIR      95  59  30 E7        30.02F HX  94
IMPERIAL       SUNNY    100  55  22 NW7       29.95F HX  98
OGALLALA       SUNNY     94  60  32 E12       30.00F HX  93
NORTH PLATTE   SUNNY     93  68  43 SE13      29.97F HX  97
MCCOOK         MOSUNNY  103  56  21 S13       29.91F HX 102
LEXINGTON      MOSUNNY   88  74  63 E9        29.96F HX  97
STAPLETON        N/A     90  68  48 E6          N/A  HX  94
GOTHENBURG       N/A     87  66  49 E9          N/A
CALLAWAY         N/A     94  75  54 SE8         N/A  HX 105
$$

...OBSERVATIONS IN CENTRAL LINCOLN COUNTY AREA...

CITY           SKY/WX    TMP DP  RH WIND       PRES   REMARKS
N.P. AIRPORT   SUNNY     93  68  43 SE13      29.97F HX  97
N.P. DOWNTOWN    N/A     92  68  45 E5G12       N/A  HX  96
N.P. SOUTHEAST   N/A     93  69  45 E3          N/A  HX  98
N.P. HILLCREST   N/A     92  65  41 SE8G15      N/A  HX  94
$$

...SOME OBSERVATIONS FROM AROUND THE REGION...

CITY           SKY/WX    TMP DP  RH WIND       PRES   REMARKS
DENVER         PTSUNNY   90  48  23 N3        30.11F
LIMON          SUNNY     92  54  27 N3        30.12F HX  90
ASPEN          CLOUDY    81  45  28 N10       30.33F
LARAMIE        CLOUDY    81  47  30 E9        30.24F
CASPER         SUNNY     93  44  18 S10G21    30.04F
CHEYENNE       PTSUNNY   85  47  26 SW8       30.18S
SCOTTSBLUFF    SUNNY     92  58  31 E12       30.03F HX  91
GRAND ISLAND   PTSUNNY   90  77  65 E10       29.96F HX 103
OMAHA          PTSUNNY   97  73  45 S10       29.91F HX 107
SIOUX FALLS    CLOUDY    85  72  65 E13       29.98F HX  91
RAPID CITY     MOSUNNY   97  57  26 S14G23    29.94F HX  96
BISMARCK       SUNNY     96  54  24 S16       29.88F HX  94
KANSAS CITY    MOSUNNY   96  75  50 S12       29.97F HX 108
HILL CITY      SUNNY    104  56  20 S14       29.92F HX 103
WICHITA        MOSUNNY  102  64  28 S12       29.94F HX 105
DODGE CITY     SUNNY    101  55  21 S17G26    29.98F HX  99
OKLAHOMA CITY  MOSUNNY   99  61  28 S15G22    30.00F HX  99
DALLAS         MOSUNNY   99  68  36 S8        29.99F HX 104
AMARILLO       SUNNY     94  55  26 S17G23    30.10F HX  92
$$




USA.gov is the U.S. government's official web portal to all federal, state and local government web resources and services.